Weather History for Bay City, TX

Change the Weather History Date:

Wednesday, November 6, 2013

  Actual Average (KLBX) Record (KLBX)
Temperature  
Mean Temperature 71 °F -  
Max Temperature 85 °F 72 °F 84 °F (2003)
Min Temperature 57 °F 54 °F 37 °F (2010)
Cooling Degree Days 6    
Growing Degree Days 21 (Base 50)    
Moisture  
Dew Point 67 °F    
Average Humidity 84    
Maximum Humidity 98    
Minimum Humidity 60    
Precipitation  
Precipitation 0.01 in - - ()
Sea Level Pressure  
Sea Level Pressure 30.08 in    
Wind  
Wind Speed 6 mph (North)    
Max Wind Speed 21 mph    
Max Gust Speed 28 mph    
Visibility 8 miles    
Events Fog , Rain    
Averages and records for this station are not official NWS values.
T = Trace of Precipitation, MM = Missing Value Source: NWS Daily Summary

Daily Weather History Graph

Daily Weather History Graph

Search for Another Location

Airport:

Trip Planner

Search our weather history database for the weather conditions in past years. The results will help you decide how hot, cold, wet, or windy it might be!

Date:

Astronomy

Nov. 06, 2013 Rise Set
Actual Time 6:39 AM CST 5:33 PM CST
Civil Twilight 6:15 AM CST 5:58 PM CST
Nautical Twilight 5:46 AM CST 6:26 PM CST
Astronomical Twilight 5:19 AM CST 6:54 PM CST
Moon 9:49 AM CST (11/6) 8:45 PM CST (11/6)
Length of Visible Light 11h 43m
Length of Day
10h 54m
Waxing Crescent, 14% of the Moon is Illuminated
Nov 6
Waxing Crescent
Nov 9
First Quarter
Nov 17
Full
Nov 25
Last Quarter
Dec 2
New

Hourly Weather History & Observations

Time (CST) Temp. Heat Index Dew Point Humidity Pressure Visibility Wind Dir Wind Speed Gust Speed Precip Events Conditions
12:15 AM 73.6 °F - 72.3 °F 96% 30.01 in 7.0 mi East 4.6 mph - N/A   Clear
12:35 AM 73.4 °F - 72.1 °F 96% 30.00 in 7.0 mi East 4.6 mph - N/A   Scattered Clouds
12:55 AM 72.9 °F - 71.8 °F 96% 30.00 in 7.0 mi East 4.6 mph - N/A   Mostly Cloudy
1:15 AM 73.0 °F - 72.0 °F 96% 30.00 in 7.0 mi ENE 3.5 mph - N/A   Overcast
1:35 AM 73.4 °F - 72.3 °F 96% 30.00 in 7.0 mi Calm Calm - N/A   Overcast
1:55 AM 72.9 °F - 71.8 °F 96% 29.99 in 5.0 mi East 3.5 mph - N/A   Overcast
2:15 AM 72.0 °F - 71.1 °F 97% 29.99 in 4.0 mi ENE 3.5 mph - N/A   Overcast
2:35 AM 72.0 °F - 71.1 °F 97% 29.99 in 4.0 mi ENE 3.5 mph - N/A   Overcast
2:55 AM 72.5 °F - 71.8 °F 98% 29.99 in 5.0 mi NE 3.5 mph - N/A   Overcast
3:15 AM 72.1 °F - 71.2 °F 97% 29.98 in 3.0 mi East 3.5 mph - N/A   Mist
3:35 AM 71.6 °F - 70.9 °F 98% 29.98 in 4.0 mi ESE 3.5 mph - N/A   Mostly Cloudy
3:55 AM 71.8 °F - 71.1 °F 98% 29.98 in 5.0 mi East 4.6 mph - N/A   Scattered Clouds
4:15 AM 72.0 °F - 71.2 °F 98% 29.98 in 5.0 mi ESE 4.6 mph - N/A   Clear
4:35 AM 71.8 °F - 71.1 °F 98% 29.99 in 3.0 mi Calm Calm - N/A   Mist
4:55 AM 71.1 °F - 70.3 °F 98% 29.99 in 1.5 mi ENE 3.5 mph - N/A   Mist
5:15 AM 70.5 °F - 69.8 °F 98% 29.99 in 0.8 mi ENE 3.5 mph - N/A   Mist
5:35 AM 70.7 °F - 69.8 °F 97% 30.00 in 0.8 mi Calm Calm - N/A   Mist
5:55 AM 70.7 °F - 70.2 °F 98% 30.00 in 1.0 mi ENE 3.5 mph - N/A   Mostly Cloudy
6:15 AM 70.3 °F - 69.6 °F 98% 30.01 in 0.5 mi ENE 3.5 mph - N/A Fog Fog
6:35 AM 69.6 °F - 69.1 °F 98% 30.01 in 0.5 mi East 3.5 mph - N/A Fog Fog
6:55 AM 70.0 °F - 69.3 °F 98% 30.01 in 1.0 mi East 3.5 mph - N/A   Mostly Cloudy
7:15 AM 70.3 °F - 69.8 °F 98% 30.02 in 2.5 mi Calm Calm - N/A   Mist
7:35 AM 72.3 °F - 71.8 °F 98% 30.02 in 3.0 mi Calm Calm - N/A   Mist
7:55 AM 74.1 °F - 73.6 °F 98% 30.03 in 7.0 mi Calm Calm - N/A   Clear
8:15 AM 75.4 °F - 74.7 °F 98% 30.04 in 10.0 mi Calm Calm - N/A   Clear
8:35 AM 77.0 °F - 75.4 °F 95% 30.05 in 10.0 mi Calm Calm - N/A   Scattered Clouds
8:55 AM 78.4 °F - 75.4 °F 90% 30.06 in 10.0 mi Calm Calm - N/A   Scattered Clouds
9:15 AM 80.1 °F 85.2 °F 75.4 °F 86% 30.06 in 10.0 mi SE 3.5 mph - N/A   Clear
9:35 AM 80.4 °F 85.8 °F 75.0 °F 84% 30.07 in 10.0 mi Calm Calm - N/A   Mostly Cloudy
9:55 AM 81.3 °F 87.6 °F 75.2 °F 82% 30.08 in 10.0 mi SSW 3.5 mph - N/A   Mostly Cloudy
10:15 AM 82.4 °F 89.2 °F 74.8 °F 78% 30.08 in 10.0 mi WSW 3.5 mph - N/A   Mostly Cloudy
10:35 AM 83.1 °F 89.2 °F 73.2 °F 72% 30.08 in 10.0 mi SW 3.5 mph - N/A   Mostly Cloudy
10:55 AM 83.3 °F 88.4 °F 72.0 °F 68% 30.07 in 10.0 mi WSW 6.9 mph - N/A   Mostly Cloudy
11:15 AM 85.1 °F 90.4 °F 71.1 °F 63% 30.07 in 10.0 mi West 8.1 mph - N/A   Mostly Cloudy
11:35 AM 84.9 °F 89.7 °F 70.7 °F 62% 30.07 in 10.0 mi NW 9.2 mph - N/A   Overcast
11:55 AM 83.8 °F 88.3 °F 70.5 °F 64% 30.06 in 10.0 mi WNW 6.9 mph - N/A   Overcast
12:15 PM 84.2 °F 88.7 °F 70.3 °F 63% 30.06 in 10.0 mi WNW 8.1 mph - N/A   Scattered Clouds
12:35 PM 84.6 °F 88.5 °F 69.4 °F 60% 30.05 in 10.0 mi WNW 8.1 mph - N/A   Clear
12:55 PM 84.9 °F 89.7 °F 70.7 °F 62% 30.04 in 10.0 mi NW 10.4 mph - N/A   Scattered Clouds
1:15 PM 84.6 °F 90.0 °F 71.8 °F 65% 30.04 in 10.0 mi NNW 10.4 mph - N/A   Scattered Clouds
1:35 PM 84.2 °F 89.6 °F 71.8 °F 66% 30.03 in 10.0 mi NW 10.4 mph - N/A   Mostly Cloudy
1:55 PM 84.0 °F 89.0 °F 71.1 °F 65% 30.03 in 10.0 mi NNW 9.2 mph - N/A   Overcast
2:15 PM 84.2 °F 88.7 °F 70.5 °F 63% 30.03 in 10.0 mi NNW 10.4 mph - N/A   Mostly Cloudy
2:35 PM 82.4 °F 86.3 °F 70.2 °F 66% 30.04 in 10.0 mi North 15.0 mph 20.7 mph N/A   Mostly Cloudy
2:55 PM 81.3 °F 84.3 °F 68.4 °F 65% 30.04 in 10.0 mi North 19.6 mph 23.0 mph N/A   Scattered Clouds
3:15 PM 79.0 °F - 67.3 °F 67% 30.06 in 10.0 mi NNW 17.3 mph 23.0 mph N/A   Scattered Clouds
3:35 PM 76.5 °F - 68.0 °F 75% 30.06 in 10.0 mi North 17.3 mph 25.3 mph N/A   Mostly Cloudy
3:55 PM 75.4 °F - 68.2 °F 78% 30.07 in 10.0 mi North 20.7 mph 24.2 mph N/A   Mostly Cloudy
4:15 PM 73.4 °F - 66.7 °F 80% 30.08 in 10.0 mi North 15.0 mph - N/A   Mostly Cloudy
4:35 PM 72.1 °F - 66.0 °F 81% 30.08 in 10.0 mi North 10.4 mph 17.3 mph N/A Rain Light Rain
4:55 PM 71.2 °F - 65.5 °F 82% 30.09 in 10.0 mi NNW 10.4 mph - N/A Rain Light Rain
5:15 PM 70.2 °F - 64.9 °F 83% 30.11 in 10.0 mi North 6.9 mph - N/A Rain Light Rain
5:35 PM 68.7 °F - 64.8 °F 87% 30.11 in 10.0 mi NNW 10.4 mph - 0.01 in Rain Light Rain
5:55 PM 68.0 °F - 64.2 °F 88% 30.12 in 10.0 mi NNW 10.4 mph 18.4 mph 0.01 in   Mostly Cloudy
6:15 PM 67.6 °F - 63.3 °F 86% 30.14 in 10.0 mi NNW 13.8 mph 19.6 mph N/A   Scattered Clouds
6:35 PM 67.1 °F - 62.4 °F 85% 30.15 in 10.0 mi NNW 12.7 mph 17.3 mph N/A   Scattered Clouds
6:55 PM 66.6 °F - 61.7 °F 84% 30.16 in 10.0 mi NNW 11.5 mph 17.3 mph N/A   Clear
7:15 PM 65.8 °F - 60.4 °F 83% 30.16 in 10.0 mi North 12.7 mph 23.0 mph N/A   Clear
7:35 PM 64.9 °F - 59.5 °F 83% 30.18 in 10.0 mi NNW 16.1 mph 20.7 mph N/A   Clear
7:55 PM 63.5 °F - 58.5 °F 84% 30.19 in 10.0 mi North 15.0 mph 24.2 mph N/A   Clear
8:15 PM 62.2 °F - 57.4 °F 84% 30.20 in 10.0 mi North 17.3 mph 23.0 mph N/A   Clear
8:35 PM 60.8 °F - 56.3 °F 85% 30.21 in 10.0 mi North 12.7 mph 16.1 mph N/A   Clear
8:55 PM 60.3 °F - 55.9 °F 86% 30.21 in 10.0 mi NNW 17.3 mph 23.0 mph N/A   Clear
9:15 PM 60.1 °F - 55.8 °F 86% 30.22 in 10.0 mi NNW 12.7 mph - N/A   Clear
9:35 PM 59.9 °F - 55.2 °F 84% 30.23 in 10.0 mi North 13.8 mph 21.9 mph N/A   Clear
9:55 PM 59.5 °F - 54.3 °F 83% 30.23 in 10.0 mi North 19.6 mph 27.6 mph N/A   Clear
10:15 PM 59.4 °F - 53.8 °F 82% 30.23 in 10.0 mi North 13.8 mph 18.4 mph N/A   Clear
10:35 PM 59.0 °F - 53.1 °F 81% 30.24 in 10.0 mi North 17.3 mph 24.2 mph N/A   Clear
10:55 PM 58.8 °F - 52.2 °F 79% 30.24 in 10.0 mi North 15.0 mph 26.5 mph N/A   Clear
11:15 PM 58.5 °F - 51.8 °F 79% 30.24 in 10.0 mi North 15.0 mph 23.0 mph N/A   Clear
11:35 PM 57.9 °F - 51.8 °F 80% 30.24 in 10.0 mi North 13.8 mph 21.9 mph N/A   Clear
11:55 PM 57.4 °F - 51.4 °F 81% 30.24 in 10.0 mi North 15.0 mph 18.4 mph N/A   Clear